Location: Arrington
(35.8681°N, 86.7092°W)
Time: 04:45:00
(UTC+00:00)

Cosmos 1452 Rocket - Pass Details

Date: 23 November 2019
Orbit: 767 x 775 km, 74.1° (Epoch: 13 December)

Event Time Altitude Azimuth Distance (km) Brightness Sun altitude
Rises 00:15:03 0° 346° (NNW) 3,260 6.8 -20.0°
Reaches altitude 10° 00:17:28 10° 350° (N) 2,329 6.0 -20.4°
Maximum altitude 00:22:42 62° 71° (ENE) 869 3.4 -21.5°
Enters shadow 00:26:39 18° 148° (SSE) 1,844 5.2 -22.3°
